timestamp,surface_pressure_avg,surface_temp_avg,battery_voltage,lat,long
2024-04-01 00:09:00+00:00,264.2397,3.5,11.86,47.84626,-54.09684
2024-04-01 00:19:00+00:00,269.0114,3.52,11.86,47.84626,-54.09684
2024-04-01 00:29:00+00:00,276.543,3.5,11.86,47.84626,-54.09684
2024-04-01 00:39:00+00:00,280.728,3.36,11.86,47.84626,-54.09684
2024-04-01 00:49:00+00:00,279.868,3.27,11.86,47.84626,-54.09684
2024-04-01 00:59:00+00:00,285.9064,3.3,11.86,47.84626,-54.09684
2024-04-01 01:09:00+00:00,290.1564,3.3,11.86,47.84626,-54.09684
2024-04-01 01:19:00+00:00,293.1614,3.1,11.86,47.84626,-54.09684
2024-04-01 01:29:00+00:00,297.0247,3.08,11.86,47.84626,-54.09684
2024-04-01 01:39:00+00:00,302.743,3.2,11.86,47.84626,-54.09684
2024-04-01 01:49:00+00:00,308.4647,3.24,11.86,47.84626,-54.09684
2024-04-01 01:59:00+00:00,316.318,3.2,11.86,47.84626,-54.09684
2024-04-01 02:09:00+00:00,322.4997,3.1,11.86,47.84626,-54.09684
2024-04-01 02:19:00+00:00,324.3597,3.17,11.86,47.84626,-54.09684
2024-04-01 02:29:00+00:00,330.2063,2.8,11.86,47.84626,-54.09684
2024-04-01 02:39:00+00:00,336.418,2.8,11.86,47.84626,-54.09684
2024-04-01 02:49:00+00:00,337.908,2.6,11.86,47.84626,-54.09684
2024-04-01 02:59:00+00:00,336.4663,2.59,11.86,47.84626,-54.09684
2024-04-01 03:09:00+00:00,339.2996,2.5,11.86,47.84626,-54.09684
2024-04-01 03:19:00+00:00,341.4480000000001,2.4,11.86,47.84626,-54.09684
2024-04-01 03:29:00+00:00,339.8130000000001,2.32,11.86,47.84626,-54.09684
2024-04-01 03:39:00+00:00,342.6097,2.3,11.86,47.84626,-54.09684
2024-04-01 03:49:00+00:00,345.3229,2.3,11.86,47.84626,-54.09684
2024-04-01 03:59:00+00:00,345.6113,2.3,11.86,47.84626,-54.09684
2024-04-01 04:09:00+00:00,344.1879,2.28,11.86,47.84626,-54.09684
2024-04-01 04:19:00+00:00,345.1514,2.26,11.86,47.84626,-54.09684
2024-04-01 04:29:00+00:00,343.7496,2.27,11.86,47.84626,-54.09684
2024-04-01 04:39:00+00:00,342.533,2.2,11.86,47.84626,-54.09684
2024-04-01 04:49:00+00:00,344.6113,2.2,11.86,47.84626,-54.09684
2024-04-01 04:59:00+00:00,342.9264,2.2,11.86,47.84626,-54.09684
2024-04-01 05:09:00+00:00,339.9963,2.21,11.86,47.84626,-54.09684
2024-04-01 05:19:00+00:00,337.4597,2.2,11.86,47.84626,-54.09684
2024-04-01 05:29:00+00:00,338.658,2.2,11.86,47.84626,-54.09684
2024-04-01 05:39:00+00:00,334.153,2.2,11.86,47.84626,-54.09684
2024-04-01 05:49:00+00:00,328.7962,2.2,11.86,47.84626,-54.09684
2024-04-01 05:59:00+00:00,328.6846,2.19,11.86,47.84626,-54.09684
2024-04-01 06:09:00+00:00,328.6797,2.2,11.86,47.84626,-54.09684
2024-04-01 06:19:00+00:00,322.1546,2.19,11.86,47.84626,-54.09684
2024-04-01 06:29:00+00:00,315.883,2.17,11.86,47.84626,-54.09684
2024-04-01 06:39:00+00:00,312.038,2.13,11.86,47.84626,-54.09684
2024-04-01 06:49:00+00:00,304.5747,2.17,11.86,47.84626,-54.09684
2024-04-01 06:59:00+00:00,295.0896,2.25,11.86,47.84626,-54.09684
2024-04-01 07:09:00+00:00,288.0013,2.4,11.86,47.84626,-54.09684
2024-04-01 07:19:00+00:00,281.0231,2.44,11.77,47.84626,-54.09684
2024-04-01 07:29:00+00:00,271.9247,2.5,11.77,47.84626,-54.09684
2024-04-01 07:39:00+00:00,265.1681,2.59,11.77,47.84626,-54.09684
2024-04-01 07:49:00+00:00,260.1597,2.6,11.77,47.84626,-54.09684
2024-04-01 07:59:00+00:00,252.7647,2.6,11.77,47.84626,-54.09684
2024-04-01 08:09:00+00:00,246.1947,2.5,11.77,47.84626,-54.09684
2024-04-01 08:19:00+00:00,244.4581,2.6,11.77,47.84626,-54.09684
2024-04-01 08:29:00+00:00,240.4048,2.6,11.77,47.84626,-54.09684
2024-04-01 08:39:00+00:00,233.2631,2.6,11.77,47.84626,-54.09684
2024-04-01 08:49:00+00:00,231.3398,2.6,11.77,47.84626,-54.09684
2024-04-01 08:59:00+00:00,232.4415,2.59,11.77,47.84626,-54.09684
2024-04-01 09:09:00+00:00,226.6364,2.5,11.77,47.84626,-54.09684
2024-04-01 09:19:00+00:00,221.1248,2.6,11.86,47.84626,-54.09684
2024-04-01 09:29:00+00:00,225.3464,2.6,11.86,47.84626,-54.09684
2024-04-01 09:39:00+00:00,226.6798,2.5,11.86,47.84626,-54.09684
2024-04-01 09:49:00+00:00,225.2281,2.52,11.86,47.84626,-54.09684
2024-04-01 09:59:00+00:00,227.2347,2.6,11.86,47.84626,-54.09684
2024-04-01 10:09:00+00:00,230.3898,2.6,11.86,47.84626,-54.09684
2024-04-01 10:19:00+00:00,230.9848,2.6,11.86,47.84626,-54.09684
2024-04-01 10:29:00+00:00,232.3831,2.6,11.86,47.84626,-54.09684
2024-04-01 10:39:00+00:00,234.5064,2.6,11.86,47.84626,-54.09684
2024-04-01 10:49:00+00:00,232.6497,2.6,11.86,47.84626,-54.09684
2024-04-01 10:59:00+00:00,232.0815,2.6,11.86,47.84626,-54.09684
2024-04-01 11:09:00+00:00,238.7081,2.59,11.86,47.84626,-54.09684
2024-04-01 11:19:00+00:00,241.5614,2.5,11.86,47.84626,-54.09684
2024-04-01 11:29:00+00:00,239.9048,2.5,11.86,47.84626,-54.09684
2024-04-01 11:39:00+00:00,239.748,2.5,11.86,47.84626,-54.09684
2024-04-01 11:49:00+00:00,243.2481,2.5,11.86,47.84626,-54.09684
2024-04-01 11:59:00+00:00,242.7597,2.47,11.86,47.84626,-54.09684
2024-04-01 12:09:00+00:00,243.0531,2.4,11.86,47.84626,-54.09684
2024-04-01 12:19:00+00:00,249.2864,2.4,11.86,47.84626,-54.09684
2024-04-01 12:29:00+00:00,250.9181,2.38,11.86,47.84626,-54.09684
2024-04-01 12:39:00+00:00,249.8331,2.4,11.86,47.84626,-54.09684
2024-04-01 12:49:00+00:00,254.5381,2.4,11.86,47.84626,-54.09684
2024-04-01 12:59:00+00:00,261.6347,2.4,11.86,47.84626,-54.09684
2024-04-01 13:09:00+00:00,259.6348,2.38,11.86,47.84626,-54.09684
2024-04-01 13:19:00+00:00,256.7914,2.37,11.93,47.84626,-54.09684
2024-04-01 13:29:00+00:00,260.5764,2.37,11.93,47.84626,-54.09684
2024-04-01 13:39:00+00:00,266.3247,2.3,11.93,47.84626,-54.09684
2024-04-01 13:49:00+00:00,267.2598,2.3,11.93,47.84626,-54.09684
2024-04-01 13:59:00+00:00,269.6581,2.2,11.93,47.84626,-54.09684
2024-04-01 14:09:00+00:00,275.2614,2.28,11.93,47.84626,-54.09684
2024-04-01 14:19:00+00:00,281.3497,2.2,12.01,47.84626,-54.09684
2024-04-01 14:29:00+00:00,284.0096,2.1,12.01,47.84626,-54.09684
2024-04-01 14:39:00+00:00,285.8864,2.11,12.01,47.84626,-54.09684
2024-04-01 14:49:00+00:00,289.5363,2.2,12.01,47.84626,-54.09684
2024-04-01 14:59:00+00:00,292.9147,2.1,12.01,47.84626,-54.09684
2024-04-01 15:09:00+00:00,294.0247,2.1,12.01,47.84626,-54.09684
2024-04-01 15:19:00+00:00,294.0813,2.1,11.86,47.84626,-54.09684
2024-04-01 15:29:00+00:00,296.913,2.1,11.86,47.84626,-54.09684
2024-04-01 15:39:00+00:00,299.6314,2.0,11.86,47.84626,-54.09684
2024-04-01 15:49:00+00:00,303.0197,2.0,11.86,47.84626,-54.09684
2024-04-01 15:59:00+00:00,304.468,2.0,11.86,47.84626,-54.09684
2024-04-01 16:09:00+00:00,303.4197,2.0,11.86,47.84626,-54.09684
2024-04-01 16:19:00+00:00,304.7496,2.0,11.86,47.84626,-54.09684
2024-04-01 16:29:00+00:00,307.1797,2.0,11.86,47.84626,-54.09684
2024-04-01 16:39:00+00:00,305.5263,2.0,11.86,47.84626,-54.09684
2024-04-01 16:49:00+00:00,302.4914,2.0,11.86,47.84626,-54.09684
2024-04-01 16:59:00+00:00,303.2947,2.0,11.86,47.84626,-54.09684
2024-04-01 17:09:00+00:00,305.5297,2.0,11.86,47.84626,-54.09684
2024-04-01 17:19:00+00:00,302.2664,2.0,11.77,47.84626,-54.09684
2024-04-01 17:29:00+00:00,300.2996,2.0,11.77,47.84626,-54.09684
2024-04-01 17:39:00+00:00,301.8314,2.0,11.77,47.84626,-54.09684
2024-04-01 17:49:00+00:00,301.7364,2.0,11.77,47.84626,-54.09684
2024-04-01 17:59:00+00:00,298.6864,2.0,11.77,47.84626,-54.09684
2024-04-01 18:09:00+00:00,294.5697,2.0,11.77,47.84626,-54.09684
2024-04-01 18:19:00+00:00,291.1847,2.0,11.77,47.84626,-54.09684
2024-04-01 18:29:00+00:00,288.3514,2.0,11.77,47.84626,-54.09684
2024-04-01 18:39:00+00:00,283.3196,2.0,11.77,47.84626,-54.09684
2024-04-01 18:49:00+00:00,279.4714,2.03,11.77,47.84626,-54.09684
2024-04-01 18:59:00+00:00,276.2514,2.04,11.77,47.84626,-54.09684
2024-04-01 19:09:00+00:00,273.1614,2.0,11.77,47.84626,-54.09684
2024-04-01 19:19:00+00:00,266.8981,2.0,11.86,47.84626,-54.09684
2024-04-01 19:29:00+00:00,258.3964,2.09,11.86,47.84626,-54.09684
2024-04-01 19:39:00+00:00,251.3531,2.1,11.86,47.84626,-54.09684
2024-04-01 19:49:00+00:00,246.8698,2.13,11.86,47.84626,-54.09684
2024-04-01 19:59:00+00:00,242.3597,2.16,11.86,47.84626,-54.09684
2024-04-01 20:09:00+00:00,235.1998,2.2,11.86,47.84626,-54.09684
2024-04-01 20:19:00+00:00,231.8298,2.2,11.77,47.84626,-54.09684
2024-04-01 20:29:00+00:00,229.2997,2.2,11.77,47.84626,-54.09684
2024-04-01 20:39:00+00:00,223.6464,2.2,11.77,47.84626,-54.09684
2024-04-01 20:49:00+00:00,215.8098,2.26,11.77,47.84626,-54.09684
2024-04-01 20:59:00+00:00,216.1731,2.3,11.77,47.84626,-54.09684
2024-04-01 21:09:00+00:00,221.9831,2.2,11.77,47.84626,-54.09684
2024-04-01 21:19:00+00:00,220.4015,2.26,11.77,47.84626,-54.09684
2024-04-01 21:29:00+00:00,215.7831,2.35,11.77,47.84626,-54.09684
2024-04-01 21:39:00+00:00,215.2581,2.5,11.77,47.84626,-54.09684
2024-04-01 21:49:00+00:00,214.9031,2.5,11.77,47.84626,-54.09684
2024-04-01 21:59:00+00:00,213.3114,2.5,11.77,47.84626,-54.09684
2024-04-01 22:09:00+00:00,216.6631,2.5,11.77,47.84626,-54.09684
2024-04-01 22:19:00+00:00,221.4981,2.44,11.77,47.84626,-54.09684
2024-04-01 22:29:00+00:00,220.7431,2.4,11.77,47.84626,-54.09684
2024-04-01 22:39:00+00:00,220.3564,2.46,11.77,47.84626,-54.09684
2024-04-01 22:49:00+00:00,226.0448,2.5,11.77,47.84626,-54.09684
2024-04-01 22:59:00+00:00,231.4764,2.5,11.77,47.84626,-54.09684
2024-04-01 23:09:00+00:00,234.3131,2.48,11.77,47.84626,-54.09684
2024-04-01 23:19:00+00:00,239.9581,2.4,11.77,47.84626,-54.09684
2024-04-01 23:29:00+00:00,241.0015,2.3,11.77,47.84626,-54.09684
2024-04-01 23:39:00+00:00,238.8231,2.3,11.77,47.84626,-54.09684
2024-04-01 23:49:00+00:00,240.0031,2.3,11.77,47.84626,-54.09684
2024-04-01 23:59:00+00:00,238.4515,2.3,11.77,47.84626,-54.09684
